FW4170 Weather Reports


Display with metric or nautical units.
time (UTC)temp
F
wind
direction
speed
MPH
gust
MPH
rain 1hr
in
rain 24hr
in
rain mn
in
humidity
%
barometer
mb
20260506215006 58 220 1.0 4.0 0.01 0.01 0.01 70 1011.8
20260506214506 58 4 1.0 4.0 0.00 0.00 0.00 65 1012.0
20260506214006 58 22 0.0 2.0 0.00 0.00 0.00 64 1011.6
20260506213506 58 102 1.0 3.0 0.00 0.00 0.00 64 1011.9
20260506213027 58 132 1.0 3.0 0.00 0.00 0.00 64 1011.8
20260506212506 58 133 0.0 3.0 0.00 0.00 0.00 64 1011.7
20260506212027 58 185 1.0 3.0 0.00 0.00 0.00 64 1011.7
20260506211506 58 73 1.0 3.0 0.00 0.00 0.00 64 1011.6
20260506211006 58 13 1.0 2.0 0.00 0.00 0.00 64 1011.6
20260506210506 58 324 1.0 2.0 0.00 0.00 0.00 64 1011.7
20260506210006 58 322 1.0 3.0 0.00 0.00 0.00 64 1011.7
20260506205526 58 12 2.0 4.0 0.00 0.00 0.00 64 1011.7
20260506205006 58 26 2.0 4.0 0.00 0.00 0.00 63 1011.6
20260506204505 58 28 1.0 4.0 0.00 0.00 0.00 63 1011.7
20260506204006 58 94 0.0 2.0 0.00 0.00 0.00 63 1011.6
20260506203506 58 110 0.0 2.0 0.00 0.00 0.00 63 1011.8
20260506203006 58 135 0.0 2.0 0.00 0.00 0.00 63 1011.6
20260506202506 58 135 0.0 2.0 0.00 0.00 0.00 63 1011.7
20260506202006 58 135 0.0 2.0 0.00 0.00 0.00 63 1011.7
20260506201506 59 100 1.0 2.0 0.00 0.00 0.00 62 1011.8
20260506201005 59 107 1.0 2.0 0.00 0.00 0.00 62 1011.8
20260506200505 59 148 1.0 2.0 0.00 0.00 0.00 62 1011.6
20260506200006 59 70 1.0 4.0 0.00 0.00 0.00 61 1011.7
20260506195505 59 15 0.0 4.0 0.00 0.00 0.00 61 1011.5
20260506195006 60 214 0.0 3.0 0.00 0.00 0.00 61 1011.5
20260506194527 60 193 1.0 3.0 0.00 0.00 0.00 61 1011.5
20260506194005 60 199 0.0 2.0 0.00 0.00 0.00 60 1011.5
20260506193526 60 225 0.0 2.0 0.00 0.00 0.00 60 1011.4
20260506193006 61 197 1.0 2.0 0.00 0.00 0.00 59 1011.4
20260506192505 61 165 1.0 2.0 0.00 0.00 0.00 58 1011.3
20260506192005 62 177 0.0 2.0 0.00 0.00 0.00 53 1011.3
20260506191506 62 0 0.0 0.0 0.00 0.00 0.00 52 1011.2
20260506191005 62 0 0.0 0.0 0.00 0.00 0.00 52 1011.3
20260506190506 63 180 0.0 2.0 0.00 0.00 0.00 51 1011.2
20260506190006 63 169 0.0 2.0 0.00 0.00 0.00 51 1011.1
20260506185506 64 46 0.0 2.0 0.00 0.00 0.00 50 1011.1
20260506185005 64 45 0.0 2.0 0.00 0.00 0.00 49 1011.1
20260506184526 64 48 0.0 3.0 0.00 0.00 0.00 49 1011.0
20260506184005 64 63 1.0 4.0 0.00 0.00 0.00 49 1010.9
20260506183505 64 65 2.0 4.0 0.00 0.00 0.00 49 1010.9
20260506183006 64 97 1.0 4.0 0.00 0.00 0.00 48 1010.8
20260506182505 65 140 1.0 2.0 0.00 0.00 0.00 47 1010.7
20260506182005 65 123 1.0 3.0 0.00 0.00 0.00 47 1010.8
20260506181505 65 127 1.0 3.0 0.00 0.00 0.00 47 1010.8
20260506181026 65 109 1.0 3.0 0.00 0.00 0.00 47 1010.8
20260506180526 65 96 1.0 4.0 0.00 0.00 0.00 47 1010.8
20260506180006 65 112 1.0 4.0 0.00 0.00 0.00 47 1010.7
20260506175506 65 104 2.0 4.0 0.00 0.00 0.00 47 1010.6
20260506175005 65 95 2.0 6.0 0.00 0.00 0.00 47 1010.7
20260506174505 65 80 3.0 6.0 0.00 0.00 0.00 47 1010.7
20260506174005 66 65 2.0 5.0 0.00 0.00 0.00 47 1010.6
20260506173505 66 79 2.0 5.0 0.00 0.00 0.00 46 1010.7
20260506173005 66 114 2.0 5.0 0.00 0.00 0.00 46 1010.8
20260506172526 66 122 3.0 5.0 0.00 0.00 0.00 46 1010.8
20260506172005 66 127 2.0 5.0 0.00 0.00 0.00 45 1010.8
20260506171505 67 167 2.0 7.0 0.00 0.00 0.00 45 1010.8
20260506171005 67 164 2.0 7.0 0.00 0.00 0.00 46 1010.7
20260506170526 67 153 1.0 3.0 0.00 0.00 0.00 45 1010.8
20260506170005 67 174 2.0 6.0 0.00 0.00 0.00 46 1010.9
20260506165505 67 183 4.0 8.0 0.00 0.00 0.00 46 1010.8
20260506165005 67 180 5.0 8.0 0.00 0.00 0.00 46 1010.8
20260506164505 67 170 4.0 8.0 0.00 0.00 0.00 46 1010.7
20260506164006 67 172 4.0 8.0 0.00 0.00 0.00 46 1010.7
20260506163505 67 186 5.0 9.0 0.00 0.00 0.00 46 1010.7
20260506163026 67 186 5.0 9.0 0.00 0.00 0.00 46 1010.7
20260506162526 67 150 4.0 9.0 0.00 0.00 0.00 46 1010.8
20260506162005 67 117 4.0 8.0 0.00 0.00 0.00 46 1010.9
20260506161526 68 136 5.0 10.0 0.00 0.00 0.00 45 1011.0
20260506161026 68 160 6.0 11.0 0.00 0.00 0.00 45 1010.9
20260506160505 69 184 6.0 11.0 0.00 0.00 0.00 44 1011.0
20260506160005 69 210 6.0 11.0 0.00 0.00 0.00 44 1011.0
20260506155505 69 203 7.0 15.0 0.00 0.00 0.00 44 1011.0
20260506155006 69 187 8.0 15.0 0.00 0.00 0.00 44 1011.0
20260506154505 69 183 8.0 12.0 0.00 0.00 0.00 44 1011.1
20260506154005 69 188 8.0 11.0 0.00 0.00 0.00 44 1011.2
20260506153504 69 195 7.0 11.0 0.00 0.00 0.00 44 1011.2
20260506153005 69 193 7.0 11.0 0.00 0.00 0.00 44 1011.2
20260506152505 69 190 8.0 16.0 0.00 0.00 0.00 43 1011.3
20260506152004 69 197 9.0 16.0 0.00 0.00 0.00 44 1011.3
20260506151505 69 194 9.0 15.0 0.00 0.00 0.00 44 1011.3
20260506151004 69 193 9.0 16.0 0.00 0.00 0.00 44 1011.4
20260506150505 69 196 7.0 16.0 0.00 0.00 0.00 44 1011.3
20260506150005 69 241 5.0 9.0 0.00 0.00 0.00 44 1011.4
20260506145504 69 218 7.0 13.0 0.00 0.00 0.00 45 1011.4
20260506145005 69 192 8.0 13.0 0.00 0.00 0.00 45 1011.5
20260506144505 69 204 9.0 15.0 0.00 0.00 0.00 43 1011.5
20260506144004 69 202 8.0 15.0 0.00 0.00 0.00 44 1011.7
20260506143504 70 189 7.0 15.0 0.00 0.00 0.00 44 1011.8
20260506143005 70 188 8.0 13.0 0.00 0.00 0.00 44 1011.8
20260506142504 70 184 8.0 15.0 0.00 0.00 0.00 44 1011.8
20260506142026 70 185 9.0 15.0 0.00 0.00 0.00 45 1011.9
20260506141526 70 188 10.0 17.0 0.00 0.00 0.00 45 1011.9
20260506141004 70 190 11.0 19.0 0.00 0.00 0.00 45 1011.9
20260506140505 70 185 11.0 19.0 0.00 0.00 0.00 45 1011.8
20260506140005 70 175 8.0 16.0 0.00 0.00 0.00 44 1011.8
20260506135504 70 153 8.0 14.0 0.00 0.00 0.00 44 1012.0
20260506135004 70 161 9.0 14.0 0.00 0.00 0.00 45 1012.0
20260506134505 69 169 8.0 13.0 0.00 0.00 0.00 45 1011.8
20260506134004 69 165 8.0 13.0 0.00 0.00 0.00 44 1011.8
20260506133504 69 193 7.0 13.0 0.00 0.00 0.00 44 1011.9
20260506133004 70 175 7.0 15.0 0.00 0.00 0.00 43 1012.0
20260506132505 70 163 9.0 15.0 0.00 0.00 0.00 44 1011.9
20260506132005 70 160 8.0 15.0 0.00 0.00 0.00 44 1012.0
20260506131504 70 178 10.0 17.0 0.00 0.00 0.00 43 1012.0
20260506131026 70 188 12.0 17.0 0.00 0.00 0.00 43 1011.9
20260506130525 70 180 12.0 17.0 0.00 0.00 0.00 43 1012.0
20260506130005 70 192 10.0 17.0 0.00 0.00 0.00 43 1012.0
20260506125504 70 196 11.0 20.0 0.00 0.00 0.00 42 1012.0
20260506125025 70 186 10.0 20.0 0.00 0.00 0.00 43 1012.0
20260506124525 70 177 8.0 17.0 0.00 0.00 0.00 44 1012.0
20260506124004 70 177 10.0 20.0 0.00 0.00 0.00 45 1012.0
20260506123505 70 184 11.0 20.0 0.00 0.00 0.00 45 1012.0
20260506123004 69 187 10.0 17.0 0.00 0.00 0.00 44 1012.0
20260506122504 69 204 9.0 17.0 0.00 0.00 0.00 45 1012.1
20260506122004 69 185 10.0 17.0 0.00 0.00 0.00 45 1012.0
20260506121504 69 164 10.0 17.0 0.00 0.00 0.00 45 1012.2
20260506121004 70 172 10.0 17.0 0.00 0.00 0.00 45 1012.1
20260506120525 70 183 9.0 15.0 0.00 0.00 0.00 44 1012.0
20260506120005 71 197 9.0 15.0 0.00 0.00 0.00 44 1011.8
20260506115504 70 208 9.0 15.0 0.00 0.00 0.00 45 1011.8
20260506115004 70 183 10.0 16.0 0.00 0.00 0.00 45 1011.8
20260506114504 70 185 10.0 16.0 0.00 0.00 0.00 44 1011.8
20260506114025 70 204 9.0 15.0 0.00 0.00 0.00 45 1011.9
20260506113504 70 199 8.0 12.0 0.00 0.00 0.00 45 1011.8
20260506113004 70 184 8.0 15.0 0.00 0.00 0.00 45 1011.8
20260506112504 70 199 10.0 19.0 0.00 0.00 0.00 45 1011.7
20260506112004 70 206 10.0 19.0 0.00 0.00 0.00 46 1011.9
20260506111504 69 190 11.0 16.0 0.00 0.00 0.00 46 1011.7
20260506111025 69 179 10.0 16.0 0.00 0.00 0.00 46 1011.8
20260506110504 68 159 8.0 15.0 0.00 0.00 0.00 47 1011.9
20260506110004 68 158 7.0 13.0 0.00 0.00 0.00 46 1011.9
20260506105504 68 187 6.0 12.0 0.00 0.00 0.00 46 1011.7
20260506105004 67 201 7.0 12.0 0.00 0.00 0.00 46 1011.8
20260506104525 67 184 7.0 12.0 0.00 0.00 0.00 46 1011.7
20260506104004 67 153 6.0 12.0 0.00 0.00 0.00 46 1011.6
20260506103504 67 166 5.0 11.0 0.00 0.00 0.00 46 1011.7
20260506103004 67 189 6.0 11.0 0.00 0.00 0.00 46 1011.7
20260506102525 67 179 6.0 11.0 0.00 0.00 0.00 46 1011.8
20260506102004 67 172 6.0 11.0 0.00 0.00 0.00 46 1011.7
20260506101504 67 173 6.0 12.0 0.00 0.00 0.00 46 1011.7
20260506101004 66 161 7.0 17.0 0.00 0.00 0.00 46 1011.7
20260506100504 66 97 7.0 17.0 0.00 0.00 0.00 46 1011.7
20260506100004 67 65 6.0 17.0 0.00 0.00 0.00 46 1011.7
20260506095504 67 94 5.0 10.0 0.00 0.00 0.00 47 1011.7
20260506095004 66 172 6.0 10.0 0.00 0.00 0.00 47 1011.7
20260506094504 66 166 5.0 10.0 0.00 0.00 0.00 47 1011.7
20260506094025 66 147 5.0 10.0 0.00 0.00 0.00 46 1011.7
20260506093503 66 161 5.0 8.0 0.00 0.00 0.00 46 1011.6
20260506093004 67 165 6.0 8.0 0.00 0.00 0.00 46 1011.6
20260506092525 67 166 5.0 8.0 0.00 0.00 0.00 46 1011.6
20260506092004 67 189 6.0 12.0 0.00 0.00 0.00 46 1011.6
20260506091504 66 186 7.0 12.0 0.00 0.00 0.00 47 1011.6
20260506091004 66 182 6.0 11.0 0.00 0.00 0.00 47 1011.4
20260506090503 66 202 5.0 11.0 0.00 0.00 0.00 47 1011.4
20260506090004 65 203 4.0 8.0 0.00 0.00 0.00 48 1011.4
20260506085524 65 191 3.0 7.0 0.00 0.00 0.00 49 1011.4
20260506085003 65 99 2.0 8.0 0.00 0.00 0.00 48 1011.4
20260506084504 65 87 3.0 8.0 0.00 0.00 0.00 50 1011.4
20260506084004 64 54 3.0 8.0 0.00 0.00 0.00 50 1011.4
20260506083503 64 22 4.0 8.0 0.00 0.00 0.00 50 1011.4
20260506083004 64 23 4.0 8.0 0.00 0.00 0.00 50 1011.4
20260506082503 63 234 3.0 7.0 0.00 0.00 0.00 50 1011.5
20260506082024 63 284 3.0 5.0 0.00 0.00 0.00 51 1011.5
20260506081503 63 350 3.0 7.0 0.00 0.00 0.00 51 1011.5
20260506081003 62 61 2.0 7.0 0.00 0.00 0.00 51 1011.4
20260506080524 62 44 2.0 7.0 0.00 0.00 0.00 52 1011.4
20260506073503 60 274 2.0 6.0 0.00 0.00 0.00 60 1011.4
20260506073024 60 3 3.0 6.0 0.00 0.00 0.00 59 1011.5
20260506072504 59 26 3.0 6.0 0.00 0.00 0.00 59 1011.6
20260506072003 59 11 3.0 6.0 0.00 0.00 0.00 60 1011.6
20260506071503 58 332 3.0 6.0 0.00 0.00 0.00 60 1011.7
20260506071004 58 314 2.0 5.0 0.00 0.00 0.00 61 1011.6
20260506070503 58 352 1.0 4.0 0.00 0.00 0.00 61 1011.7
20260506062507 53 135 0.0 2.0 0.00 0.00 0.00 64 1011.9
20260506062007 53 178 0.0 2.0 0.00 0.00 0.00 65 1012.0
20260506061507 52 188 1.0 2.0 0.00 0.00 0.00 70 1012.0
20260506061007 52 187 1.0 3.0 0.00 0.00 0.00 70 1012.0
20260506060507 51 183 2.0 3.0 0.00 0.00 0.00 70 1012.1
20260506051007 46 174 0.0 2.0 0.00 0.00 0.00 72 1012.2
20260506050507 45 135 0.0 2.0 0.00 0.00 0.00 72 1012.2
20260506045007 44 151 0.0 2.0 0.00 0.00 0.00 73 1012.0
20260506044528 44 180 0.0 2.0 0.00 0.00 0.00 80 1012.1
20260506044007 43 178 0.0 2.0 0.00 0.00 0.00 80 1012.0
20260506043507 43 99 0.0 2.0 0.00 0.00 0.00 80 1012.0
20260506043028 43 45 0.0 2.0 0.00 0.00 0.00 80 1011.9
20260506042507 43 0 0.0 0.0 0.00 0.00 0.00 79 1011.9
20260506042007 43 45 0.0 1.0 0.00 0.00 0.00 79 1011.9
20260506041507 43 45 0.0 2.0 0.00 0.00 0.00 80 1011.8
20260506041007 43 46 0.0 2.0 0.00 0.00 0.00 80 1011.9
20260506040528 43 203 0.0 2.0 0.00 0.00 0.00 80 1011.9
20260506040007 43 209 0.0 2.0 0.00 0.00 0.00 79 1011.9
20260506035528 43 90 0.0 2.0 0.00 0.00 0.00 79 1011.8
20260506035007 43 81 0.0 2.0 0.00 0.00 0.00 79 1011.7
20260506034507 43 82 0.0 2.0 0.00 0.00 0.00 78 1011.6
20260506034007 43 95 0.0 2.0 0.00 0.00 0.00 78 1011.7
20260506033506 43 139 0.0 2.0 0.00 0.00 0.00 78 1011.6
20260506033007 44 236 0.0 2.0 0.00 0.00 0.00 77 1011.6
20260506032507 44 299 0.0 2.0 0.00 0.00 0.00 72 1011.7
20260506032007 44 360 0.0 2.0 0.00 0.00 0.00 71 1011.7
20260506031507 44 180 0.0 2.0 0.00 0.00 0.00 71 1011.7
20260506031028 44 180 0.0 2.0 0.00 0.00 0.00 71 1011.6
20260506030508 44 180 0.0 2.0 0.00 0.00 0.00 71 1011.7
20260506030007 44 180 1.0 2.0 0.00 0.00 0.00 71 1011.6
20260506025506 45 169 1.0 2.0 0.00 0.00 0.00 71 1011.5
20260506025007 45 70 1.0 2.0 0.00 0.00 0.00 71 1011.6
20260506024507 45 95 1.0 2.0 0.00 0.00 0.00 71 1011.6
20260506024007 45 180 0.0 2.0 0.00 0.00 0.00 71 1011.5
20260506023506 45 180 0.0 1.0 0.00 0.00 0.00 70 1011.6
20260506023007 45 0 0.0 0.0 0.00 0.00 0.00 70 1011.6
20260506022506 45 180 0.0 2.0 0.00 0.00 0.00 70 1011.7
20260506022006 45 182 1.0 2.0 0.00 0.00 0.00 70 1011.6
20260506021506 46 199 1.0 2.0 0.00 0.00 0.00 70 1011.6
20260506021006 46 226 1.0 3.0 0.00 0.00 0.00 70 1011.6
20260506020506 46 217 1.0 3.0 0.00 0.00 0.00 70 1011.8
20260506020007 46 142 1.0 3.0 0.00 0.00 0.00 70 1011.6
20260506015506 46 106 1.0 3.0 0.00 0.00 0.00 70 1011.6
20260506015006 46 67 1.0 2.0 0.00 0.00 0.00 70 1011.5
20260506014506 46 45 0.0 2.0 0.00 0.00 0.00 70 1011.7
20260506014027 46 167 0.0 2.0 0.00 0.00 0.00 70 1011.7
20260506013527 46 176 1.0 2.0 0.00 0.00 0.00 70 1011.7
20260506013006 46 186 1.0 2.0 0.00 0.00 0.00 70 1011.9
20260506012506 46 185 0.0 2.0 0.00 0.00 0.00 69 1011.8
20260506012007 46 180 1.0 2.0 0.00 0.00 0.00 69 1011.6
20260506011507 46 180 0.0 2.0 0.00 0.00 0.00 69 1011.7
20260506011028 46 180 0.0 2.0 0.00 0.00 0.00 68 1011.7
20260506010527 46 200 1.0 3.0 0.00 0.00 0.00 68 1011.6
20260506010006 46 236 1.0 3.0 0.00 0.00 0.00 68 1011.6
20260506005507 46 198 1.0 3.0 0.00 0.00 0.00 68 1011.8
20260506005006 46 167 1.0 3.0 0.00 0.00 0.00 67 1011.6
20260506004506 46 108 1.0 4.0 0.00 0.00 0.00 67 1011.6
20260506004006 46 161 2.0 4.0 0.00 0.00 0.00 67 1011.7
20260506003506 46 151 1.0 4.0 0.00 0.00 0.00 67 1011.7
20260506003007 46 80 1.0 2.0 0.00 0.00 0.00 67 1011.8
20260506002506 46 69 0.0 2.0 0.00 0.00 0.00 67 1011.8
20260506002006 46 72 0.0 2.0 0.00 0.00 0.00 67 1011.8
20260506001506 46 105 0.0 2.0 0.00 0.00 0.00 67 1011.9
20260506001006 46 77 0.0 2.0 0.00 0.00 0.00 68 1011.9
20260506000506 46 35 0.0 2.0 0.00 0.00 0.00 68 1012.0
20260506000006 45 116 0.0 2.0 0.00 0.00 0.00 68 1012.1
20260505235506 45 165 0.0 2.0 0.00 0.00 0.00 68 1012.0
20260505235027 45 151 0.0 2.0 0.00 0.00 0.00 68 1012.1
20260505234506 45 135 0.0 1.0 0.00 0.00 0.00 67 1012.0
20260505234006 45 141 0.0 2.0 0.00 0.00 0.00 67 1012.2
20260505233506 46 172 0.0 2.0 0.00 0.00 0.00 67 1012.1
20260505233006 46 192 0.0 2.0 0.00 0.00 0.00 66 1012.1
20260505232507 46 225 0.0 2.0 0.00 0.00 0.00 65 1012.1
20260505232006 46 225 0.0 2.0 0.00 0.00 0.00 65 1012.2
20260505231506 46 67 0.0 2.0 0.00 0.00 0.00 64 1012.2
20260505231006 46 92 1.0 4.0 0.00 0.00 0.00 64 1012.2
20260505230506 47 104 1.0 4.0 0.00 0.00 0.00 64 1012.3
20260505230006 47 101 1.0 3.0 0.00 0.00 0.00 63 1012.3
20260505225506 47 360 0.0 2.0 0.00 0.00 0.00 63 1012.2
20260505225006 47 360 0.0 2.0 0.00 0.00 0.00 63 1012.2
20260505224527 47 0 0.0 0.0 0.00 0.00 0.00 63 1012.3
20260505224006 47 90 0.0 1.0 0.00 0.00 0.00 62 1012.3
20260505223506 48 63 0.0 2.0 0.00 0.00 0.00 62 1012.3
20260505223006 48 27 1.0 2.0 0.00 0.00 0.00 62 1012.2
20260505222506 48 25 1.0 2.0 0.00 0.00 0.00 62 1012.1
20260505222027 48 54 0.0 2.0 0.00 0.00 0.00 62 1012.3
20260505221506 48 45 0.0 2.0 0.00 0.00 0.00 61 1012.4
20260505221005 49 45 0.0 2.0 0.00 0.00 0.00 61 1012.3
20260505220527 49 45 0.0 2.0 0.00 0.00 0.00 61 1012.4
20260505220006 49 45 0.0 2.0 0.00 0.00 0.00 61 1012.3
20260505215506 49 45 0.0 2.0 0.00 0.00 0.00 61 1012.4